Weather in Bolshoy Azyas

Russia / Republic of Mordovia     54°10′19″N   43°40′48″E
temp.,
°C
wind,
m/s
gust,
m/s
humid.,
%
clouds,
%
prec.,
mm/h
press.,
hPa
HPBL,
m
28 september, tue
tue2800:00+4ne5894100 0.1 1020810
03:00+5nne4997100 0.1 1022724
06:00+5ne5986100 0.1 1024778
09:00+4ne5984100 0.1 1025790
12:00+7ene587097 0.0 10271155
15:00+9ne575476 0.0 10281456
18:00+6nne35665 0.0 102980
21:00+4nne37745 0.0 1031133
29 september, wed
wed2900:00+2nne357911 0.0 1031105
03:00+2nne358253 0.0 103291
06:00+1nne358477 0.0 103396
09:00+6nne356538 0.0 1033376
12:00+9nne3451100 0.0 10321148
15:00+10n34456 0.0 10311412
18:00+7n2261100 0.0 103226
21:00+5nne226768 0.0 103219
30 september, thu
thu3000:00+4n227327 0.0 103218
03:00+3n227929 0.0 103320
06:00+3n238364 0.0 103357
09:00+7n34695 0.0 1033318
12:00+11n345926 0.0 1033981
15:00+10nnw3464100 0.0 1033577
18:00+8nw117587 0.0 103210
21:00+9nw2573100 0.0 1033121
1 october, fri
fri100:00+9wnw3578100 0.0 1033143
03:00+8wnw368270 0.0 1033158
06:00+7nw379322 0.0 1033162
09:00+11nnw46796 0.0 1033423
12:00+14nnw456876 0.0 1033954
15:00+14nnw4564100 0.0 10331062
18:00+13wnw3672100 0.0 1033200
21:00+9wnw35875 0.0 103487
2 october, sat
sat200:00+8nw22915 0.0 103436
03:00+7nw22935 0.0 103433
06:00+7nw22945 0.0 103430
09:00+10nw23795 0.0 1034289
12:00+14nnw236635 0.0 1033857
15:00+14n2261100 0.0 10331155
18:00+12ene2273100 0.0 103333
21:00+12ese1177100 0.0 103416